INTELSAT 11 (IS-11)

Last updated on Thu Oct 23 2025 00:02:53 GMT+0000 (Coordinated Universal Time)

1 32253U 07044B 25295.49635022 -.00000010 00000+0 00000+0 0 9994 2 32253 2.9422 81.5727 0008651 138.4938 80.9206 0.99048220 66092
UTC large
Height (km)
Speed (km/s)
/
Latitude / Longitude
Inclination (degrees)
Orbital Period (minutes)
Azimuth
Elevation
Range (km)
Doppler Factor

Next 0 passes for location: London (51.5072 / 0.1276)

Sorry there are no passes over London.